This is the latest recevied weather packets stored in our database for station/object EA1CUE-WX. If no packets are shown the sender has not sent any weather packets the latest 10 day(s).
| Time | Temp. | Humidity | Pressure | Rain* | Wind** | Luminosity | Snow |
|---|---|---|---|---|---|---|---|
| 1787737429 | 15° C | 1% | 1009.6 hPa | 0 mm | - | - | - |
| 1787737129 | 15° C | 1% | 1009.9 hPa | 0 mm | - | - | - |
| 1787736830 | 15° C | 1% | 1009.9 hPa | 0 mm | - | - | - |
| 1787736529 | 14.44° C | 1% | 1010 hPa | 0 mm | - | - | - |
| 1787736230 | 14.44° C | 1% | 1009.9 hPa | 0 mm | - | - | - |
| 1787735929 | 14.44° C | 1% | 1010.1 hPa | 0 mm | - | - | - |
| 1787735629 | 14.44° C | 1% | 1010.2 hPa | 0 mm | - | - | - |
| 1787735330 | 15° C | 1% | 1010 hPa | 0 mm | - | - | - |
| 1787735029 | 15° C | 1% | 1009.7 hPa | 0 mm | - | - | - |
| 1787734729 | 15.56° C | 1% | 1010 hPa | 0 mm | - | - | - |
| 1787734429 | 15.56° C | 7% | 1010.2 hPa | 0 mm | - | - | - |
| 1787734129 | 15.56° C | 13% | 1010.4 hPa | 0 mm | - | - | - |
| 1787733830 | 15.56° C | 11% | 1010.3 hPa | 0 mm | - | - | - |
| 1787733529 | 15.56° C | 15% | 1010 hPa | 0 mm | - | - | - |
| 1787733229 | 16.11° C | 21% | 1010.3 hPa | 0 mm | - | - | - |
| 1787732929 | 16.11° C | 24% | 1009.8 hPa | 0 mm | - | - | - |
| 1787732629 | 16.11° C | 23% | 1010 hPa | 0 mm | - | - | - |
| 1787732329 | 16.11° C | 23% | 1010.2 hPa | 0 mm | - | - | - |
| 1787732029 | 16.11° C | 18% | 1010.2 hPa | 0 mm | - | - | - |
| 1787731729 | 16.11° C | 16% | 1010 hPa | 0 mm | - | - | - |
| 1787731429 | 16.11° C | 4% | 1010 hPa | 0 mm | - | - | - |
| 1787731129 | 16.11° C | 1% | 1010.1 hPa | 0 mm | - | - | - |
| 1787730829 | 15.56° C | 1% | 1010.1 hPa | 0 mm | - | - | - |
| 1787730529 | 15.56° C | 1% | 1010.1 hPa | 0 mm | - | - | - |
| 1787730229 | 15.56° C | 1% | 1009.9 hPa | 0 mm | - | - | - |
* Rain latest hour (hover to see other rain measurements)
** Current wind speed in m/s (hover to see current wind gust speed)